Tracking 20942 objects as of 10-Jul-2020
HD Live streaming from Space Station
objects crossing your sky now

THORAD DELTA 1 DEB

Track THORAD DELTA 1 DEB now!
10-day predictions


NORAD ID: 14879
Int'l Code: 1974-089ES
Perigee: 1,447.3 km
Apogee: 1,792.9 km
Inclination: 101.3 °
Period: 118.5 minutes
Semi major axis: 7991 km
RCS: 0.0345 m2 (small)
Launch date: November 15, 1974
Source: United States (US)
Launch site: AIR FORCE WESTERN TEST RANGE (AFWTR)

Note: This is SATELLITE DEBRIS
aabbcc
Your satellite tracking list
Your tracking list is empty




NASA's NSSDC Master Catalog

Two Line Element Set (TLE):
1 14879U 74089ES  20191.98260375 -.00000048  00000-0 -11349-3 0  9995
2 14879 101.2504 333.7730 0216261 100.1276  18.8588 12.15332799624007
Source of the keplerian elements: AFSPC